Find Starlink 36297

NORAD ID: 67671 Int'l Des: 2026-022 Owner: SPXS Country: US Constellation: starlink operational
LEOCIRCULARRETROGRADE

Current View

Loading 3D Globe...

About Starlink 36297

Description loading...

Upcoming Passes

Passes for default location (London). Set your location on the main map for personalized predictions.

Altitude History

Loading altitude history...

Two-Line Element Set

1 67671U 26022Z 26146.05523079 .00017543 00000-0 54426-3 0 9993
2 67671 97.2840 179.3688 0001059 95.8226 264.3138 15.33457433 17438
Epoch: May 26, 2026 • Age: 12 hours

Current Status

Altitude 469.4 km
Velocity 7.63 km/s
Sub-Earth Point 32.69°N, 73.5°W
Launch Date Feb 2, 2026
Age 0.3 years
Type internet

Technical Details

Classification Payload
Mass 575.00 kg
Dry Mass 530.00 kg
Total Mass 575.00 kg
Length 0.30 m
Diameter 4.10 m
Span 29.00 m
Shape Box + pan
Manufacturer SPXS
Bus Type Starlink V2MO
Phase Status In Orbit
Owner/State SPXS/US

Most Searched